Location: Makanda
(37.6176°N, 89.2090°W)
Time: 16:15:29
(UTC+00:00)

Cosmos 1908 Rocket - Pass Details

Date: 23 September 2019
Orbit: 606 x 633 km, 82.5° (Epoch: 19 October)

Event Time Altitude Azimuth Distance (km) Brightness Sun altitude
Rises 09:35:40 0° 358° (N) 2,869 7.2 -25.9°
Reaches altitude 10° 09:37:56 10° 3° (N) 1,963 6.4 -25.5°
Maximum altitude 09:42:10 53° 81° (E) 750 4.2 -24.7°
Drops below altitude 10° 09:46:24 10° 158° (SSE) 1,958 6.1 -23.9°
Sets 09:48:40 0° 163° (SSE) 2,862 7.0 -23.5°
